Regional Weather Roundup
Issued by NWS Upton, NY

Current Version | Previous Version | Graphics & Text | Print | Product List | Glossary On
Versions: 1 2 3 4 5 6 7 8 9 10 11 12 13 14 15 16 17 18 19 20 21 22 23 24 25 26 27 28
000
ASUS41 KOKX 232009
RWROKX

REGIONAL WEATHER ROUNDUP
NATIONAL WEATHER SERVICE NEW YORK NY
400 PM EDT SUN APR 23 2017

NOTE: "FAIR" INDICATES FEW OR NO CLOUDS BELOW 12,000 FEET WITH NO
SIGNIFICANT WEATHER AND/OR OBSTRUCTIONS TO VISIBILITY.

NYZ071-072-176-178-NJZ106-104-232100-
NEW YORK CITY METRO AREA

CITY           SKY/WX    TMP DP  RH WIND       PRES   REMARKS
Central Park   CLOUDY    63  36  36 VRB6      30.08F
Wall St Helipt CLOUDY    62  40  44 SW7G49    30.08F
Bronx Bot Gard   N/A     61  37  41 SE8       30.08S
LaGuardia APRT CLOUDY    63  37  38 S12       30.06F
Kennedy INTL   PTSUNNY   55  42  61 S10       30.09F
Breezy Point     N/A     52 N/A N/A S13         N/A
Newark/Liberty PTSUNNY   63  36  36 SE8       30.06F
Teterboro      CLOUDY    65  37  35 S10       30.05F
$$

NYZ177-179-078>081-232100-
LONG ISLAND NEW YORK

CITY           SKY/WX    TMP DP  RH WIND       PRES   REMARKS
Jones Beach      N/A     50 N/A N/A S12         N/A
Matinecock PT    N/A     59 N/A N/A SW1         N/A
Farmingdale    CLOUDY    56  41  57 S9        30.08F
MacArthur/ISP  PTSUNNY   56  41  57 S12       30.08F
Shirley        CLOUDY    54  39  57 SW10      30.09F
Mt Sinai Harb    N/A     57 N/A N/A S9          N/A
Westhampton    CLOUDY    53  37  54 S9        30.11F
East Hampton     N/A     50  38  63 S8        30.09S
Montauk          N/A     52  41  66 S7        30.11F
$$

NYZ052-065-067-232100-
HUDSON VALLEY

CITY           SKY/WX    TMP DP  RH WIND       PRES   REMARKS
White Plains   CLOUDY    63  36  36 S8        30.04F
Larchmont Harb   N/A     55 N/A N/A S14         N/A
Croton O-T Hud   N/A     63 N/A N/A SW2         N/A
Newburgh       MOSUNNY   66  37  34 CALM      30.04F
Montgomery     SUNNY     67  30  25 S6        30.02F
Poughkeepsie   CLOUDY    66  27  23 CALM      30.02F
Albany         MOSUNNY   68  32  26 VRB5      30.02F
$$

NJZ001-105-106-008-010-013-015-019>022-104-232100-
NEW JERSEY

CITY           SKY/WX    TMP DP  RH WIND       PRES   REMARKS
Newark/Liberty PTSUNNY   63  36  36 SE8       30.06F
Teterboro      CLOUDY    65  37  35 S10       30.05F
Caldwell       CLOUDY    67  33  28 VRB5      30.05F
Somerville     CLOUDY    65  36  34 S5        30.04F
Linden           N/A     64  35  33 CALM      30.06F
Sussex         CLOUDY    67  28  23 CALM      30.04F
Andover          N/A     67  28  23 VRB3      30.03F
Trenton        MOSUNNY   64  39  39 VRB3      30.06F
Millville      CLOUDY    58  47  66 SE8       30.08F
Atlantic City  CLOUDY    55  44  66 E12       30.10F
Wrightstown    MOSUNNY   64  42  44 CALM      30.04F
Toms River     MOSUNNY   58  44  60 SE8       30.09F
Belmar         CLOUDY    56  39  53 SE9       30.10F
$$

PAZ047>061-062-071-232100-
EASTERN PENNSYLVANIA

CITY           SKY/WX    TMP DP  RH WIND       PRES   REMARKS
Philadelphia   CLOUDY    65  40  39 CALM      30.07F
Allentown      CLOUDY    63  35  35 CALM      30.06F
Scranton       SUNNY     69  23  17 VRB3      30.02F
$$

CTZ002-004>006-009-010-012-RIZ004-006-007-MAZ004-011-015-232100-
SOUTHERN NEW ENGLAND
 IN CT

CITY           SKY/WX    TMP DP  RH WIND       PRES   REMARKS
Bradley INTL   MOSUNNY   68  34  28 VRB7      30.02F
Hartford       SUNNY     66  34  30 S3        30.03F
Danbury        CLOUDY    64  35  34 SW6       30.05F
Wtrbury/Oxford PTSUNNY   64  37  36 VRB5      30.04F
Bridgeport     MOSUNNY   61  37  41 S9        30.07F
Meriden        CLOUDY    65  39  38 S12G18    30.04F
New Haven      PTSUNNY   56  39  53 SW9       30.07F
Chester          N/A     57  36  44 S8G14     30.06S
Groton         SUNNY     53  41  63 S12       30.08S
Wilimantic     SUNNY     69  34  27 CALM      30.03F

 IN RI

CITY           SKY/WX    TMP DP  RH WIND       PRES   REMARKS
Providence     MOSUNNY   57  41  55 SE16      30.07S
Block Island   CLOUDY    51  40  65 S13       30.09F
Westerly       SUNNY     54  40  59 S10G21    30.09F
 IN MA

CITY           SKY/WX    TMP DP  RH WIND       PRES   REMARKS
Boston         MOSUNNY   54  39  57 E14       30.04F
Worcester      SUNNY     63  29  27 W5        30.02F
Westfield      SUNNY     68  35  29 SE5       30.00F
Provincetown   SUNNY     55  39  54 S6        30.07F
Nantucket      SUNNY     49  41  74 SE12      30.09F
$$

ANZ330-335-338-340-345-350-353-355-232100-
COASTAL MARINE OBSERVATIONS


STATION/POSITION TIME  SKY/WX   TEMP    WIND        PRES    VSBY  WAVE
                                AIR SEA DIR/SP/G                  HT/PER
                 (UTC)          (F)     (DEG/KT/KT) (MB)    (MI)  (FT/S)
NY HARB ENTRANCE 1850            50 51  170/ 10/ 12 1019.6          3/11
20 S FIRE ISLAND 1950            49 50  160/  8/  8 1018.9          3/11
GREAT SOUTH BAY  1915            50 56  190/ 10/ 10   N/A
23 SSW MONTAUK P 1850            48 48              1020.0          3/11
15 E BARNEGAT LI 1930               51                N/A           4/12
HUDSON CANYON    1850            48 49   20/  6/  6 1020.1          4/11
KINGS POINT      1948            57 53  210/  9/ 10 1018.0
EXECUTION ROCKS  NOT AVBL
CENTRAL LI SOUND 1945            52     200/  6/  6   N/A           1
EASTERN LI SOUND NOT AVBL
ROBBINS REEF     1948            52     160/ 16/ 17 1018.4
$$


>>>>>>>>>>>>>>>>>>>>>>>>>>>> KEY <<<<<<<<<<<<<<<<<<<<<<<<<<<
>                                                          <
>     SKY/WX - Sky Condition/Present Weather               <
>     TMP    - Temperature in Fahrenheit                   <
>     DP     - Dew Point in Fahrenheit                     <
>     RH     - Relative Humidity in Percent                <
>     WIND   - Direction (from) and Speed in MPH           <
>     PRES   - Mean Sea Level Pressure (inches of Hg)      <
>     WCI    - Wind Chill Index                            <
>     VSB    - VISIBILITY IN MILES                         <
>     HX     - HEAT INDEX                                  <
>     TC     - TEMPERATURE IN CELSIUS                      <
>     VRB    - VARIABLE WIND DIRECTION                     <
>                                                          <
>>>>>>>>>>>>>>>>>>>>>>>>>>>> KEY <<<<<<<<<<<<<<<<<<<<<<<<<<<




USA.gov is the U.S. government's official web portal to all federal, state and local government web resources and services.